KC7O Weather Reports


Display with metric or nautical units.
time (UTC)temp
F
wind
direction
speed
MPH
gust
MPH
rain 1hr
in
rain 24hr
in
rain mn
in
humidity
%
barometer
mb
20260507221358 80 270 2.0 6.0 0.00 0.00 0.00 54 1012.2
20260507220901 81 191 3.0 5.0 0.00 0.00 0.00 54 1012.2
20260507220406 81 163 2.0 5.0 0.00 0.00 0.00 54 1012.3
20260507215851 80 214 1.0 7.0 0.00 0.00 0.00 55 1012.3
20260507215356 80 153 2.0 7.0 0.00 0.00 0.00 54 1012.3
20260507214903 80 155 2.0 10.0 0.00 0.00 0.00 54 1012.4
20260507213852 81 164 3.0 7.0 0.00 0.00 0.00 53 1012.6
20260507213359 81 155 3.0 8.0 0.00 0.00 0.00 53 1012.6
20260507212923 82 207 3.0 8.0 0.00 0.00 0.00 53 1012.7
20260507212352 82 247 2.0 7.0 0.00 0.00 0.00 52 1012.7
20260507211856 82 197 3.0 7.0 0.00 0.00 0.00 52 1012.7
20260507211401 82 224 3.0 7.0 0.00 0.00 0.00 50 1012.7
20260507210907 81 170 1.0 7.0 0.00 0.00 0.00 51 1012.7
20260507210408 82 138 3.0 6.0 0.00 0.00 0.00 51 1012.8
20260507205854 81 257 1.0 5.0 0.00 0.00 0.00 52 1012.8
20260507205356 81 215 1.0 6.0 0.00 0.00 0.00 52 1012.8
20260507204859 80 169 2.0 6.0 0.00 0.00 0.00 52 1012.9
20260507204404 81 287 1.0 6.0 0.00 0.00 0.00 52 1013.0
20260507203907 81 171 3.0 6.0 0.00 0.00 0.00 52 1013.0
20260507203406 80 172 2.0 6.0 0.00 0.00 0.00 52 1013.0
20260507202850 81 269 2.0 6.0 0.00 0.00 0.00 51 1013.1
20260507201858 81 147 2.0 5.0 0.00 0.00 0.00 52 1013.1
20260507201402 80 170 2.0 5.0 0.00 0.00 0.00 52 1013.2
20260507200905 80 155 3.0 5.0 0.00 0.00 0.00 54 1013.3
20260507200428 80 253 1.0 5.0 0.00 0.00 0.00 53 1013.4
20260507195851 79 238 2.0 5.0 0.00 0.00 0.00 54 1013.5
20260507195416 79 151 2.0 5.0 0.00 0.00 0.00 55 1013.6
20260507194402 78 251 1.0 6.0 0.00 0.00 0.00 57 1013.5
20260507193850 78 167 3.0 6.0 0.00 0.00 0.00 56 1013.7
20260507193355 78 237 3.0 6.0 0.00 0.00 0.00 55 1013.7
20260507192904 77 179 3.0 6.0 0.00 0.00 0.00 56 1013.8
20260507192408 77 143 2.0 6.0 0.00 0.00 0.00 57 1013.9
20260507191854 77 148 2.0 6.0 0.00 0.00 0.00 58 1013.9
20260507191419 77 173 3.0 6.0 0.00 0.00 0.00 56 1014.0
20260507190906 77 162 3.0 6.0 0.00 0.00 0.00 56 1014.0
20260507190351 77 143 2.0 4.0 0.00 0.00 0.00 57 1014.0
20260507185855 77 124 2.0 5.0 0.00 0.00 0.00 58 1014.1
20260507185411 76 125 2.0 5.0 0.00 0.00 0.00 57 1014.0
20260507184908 76 203 1.0 4.0 0.00 0.00 0.00 58 1014.1
20260507184426 75 199 2.0 4.0 0.00 0.00 0.00 60 1014.3
20260507183921 75 136 1.0 4.0 0.00 0.00 0.00 59 1014.3
20260507183400 75 162 1.0 4.0 0.00 0.00 0.00 59 1014.5
20260507182919 75 248 2.0 4.0 0.00 0.00 0.00 60 1014.5
20260507182354 74 181 1.0 4.0 0.00 0.00 0.00 60 1014.5
20260507181854 74 157 2.0 4.0 0.00 0.00 0.00 60 1014.5
20260507181355 74 154 2.0 4.0 0.00 0.00 0.00 61 1014.5
20260507180850 74 131 2.0 4.0 0.00 0.00 0.00 60 1014.4
20260507180405 74 260 2.0 5.0 0.00 0.00 0.00 62 1014.5
20260507175906 73 125 2.0 5.0 0.00 0.00 0.00 62 1014.5
20260507175359 73 257 1.0 4.0 0.00 0.00 0.00 62 1014.5
20260507174855 73 152 1.0 4.0 0.00 0.00 0.00 63 1014.5
20260507174352 72 175 1.0 3.0 0.00 0.00 0.00 63 1014.6
20260507173853 72 284 0.0 4.0 0.00 0.00 0.00 65 1014.6
20260507173349 72 225 1.0 4.0 0.00 0.00 0.00 63 1014.7
20260507172852 71 245 1.0 4.0 0.00 0.00 0.00 64 1014.6
20260507172357 72 147 1.0 4.0 0.00 0.00 0.00 62 1014.7
20260507171921 72 259 1.0 4.0 0.00 0.00 0.00 64 1014.6
20260507171405 71 163 2.0 4.0 0.00 0.00 0.00 64 1014.6
20260507170909 70 159 0.0 2.0 0.00 0.00 0.00 66 1014.7
20260507170351 70 197 1.0 5.0 0.00 0.00 0.00 66 1014.6
20260507165855 69 160 2.0 5.0 0.00 0.00 0.00 66 1014.6
20260507165404 70 196 2.0 4.0 0.00 0.00 0.00 66 1014.6
20260507164908 69 181 1.0 4.0 0.00 0.00 0.00 67 1014.6
20260507164353 68 162 2.0 4.0 0.00 0.00 0.00 67 1014.6
20260507163858 68 145 0.0 3.0 0.00 0.00 0.00 68 1014.7
20260507163400 68 165 1.0 3.0 0.00 0.00 0.00 69 1014.8
20260507162924 68 220 1.0 3.0 0.00 0.00 0.00 70 1014.8
20260507162405 68 195 1.0 3.0 0.00 0.00 0.00 70 1014.8
20260507161852 67 172 1.0 3.0 0.00 0.00 0.00 70 1014.8
20260507161353 66 138 1.0 4.0 0.00 0.00 0.00 71 1014.8
20260507160856 67 154 2.0 4.0 0.00 0.00 0.00 70 1014.9
20260507160400 66 125 0.0 3.0 0.00 0.00 0.00 72 1014.9
20260507155902 66 169 1.0 3.0 0.00 0.00 0.00 72 1014.9
20260507155406 65 130 1.0 4.0 0.00 0.00 0.00 73 1014.9
20260507154930 65 134 1.0 4.0 0.00 0.00 0.00 72 1014.9
20260507154356 65 150 1.0 3.0 0.00 0.00 0.00 72 1014.9
20260507153904 65 188 1.0 3.0 0.00 0.00 0.00 72 1015.0
20260507153409 66 152 1.0 3.0 0.00 0.00 0.00 71 1015.0
20260507152854 66 162 1.0 2.0 0.00 0.00 0.00 72 1014.9
20260507152355 65 158 1.0 2.0 0.00 0.00 0.00 72 1015.0
20260507151901 65 220 0.0 1.0 0.00 0.00 0.00 73 1015.0
20260507151426 65 124 0.0 1.0 0.00 0.00 0.00 72 1015.0
20260507150911 65 155 0.0 1.0 0.00 0.00 0.00 73 1014.9
20260507150415 65 143 0.0 1.0 0.00 0.00 0.00 72 1014.9
20260507145858 66 147 0.0 0.0 0.00 0.00 0.00 71 1014.9
20260507145404 66 153 0.0 0.0 0.00 0.00 0.00 70 1014.9
20260507144909 66 151 0.0 0.0 0.00 0.00 0.00 71 1014.9
20260507144354 66 200 0.0 0.0 0.00 0.00 0.00 72 1014.9
20260507143402 64 229 0.0 0.0 0.00 0.00 0.00 74 1014.9
20260507142905 64 229 0.0 0.0 0.00 0.00 0.00 74 1014.8
20260507142411 65 186 0.0 0.0 0.00 0.00 0.00 74 1014.8
20260507141855 64 186 0.0 0.0 0.00 0.00 0.00 75 1014.7
20260507141358 64 186 0.0 0.0 0.00 0.00 0.00 75 1014.6
20260507140922 63 186 0.0 0.0 0.00 0.00 0.00 77 1014.6
20260507140406 63 186 0.0 0.0 0.00 0.00 0.00 79 1014.5
20260507135851 61 186 0.0 0.0 0.00 0.00 0.00 85 1014.5
20260507135357 58 186 0.0 0.0 0.00 0.00 0.00 88 1014.5
20260507134902 57 186 0.0 0.0 0.00 0.00 0.00 89 1014.5
20260507134407 56 186 0.0 0.0 0.00 0.00 0.00 91 1014.3
20260507133852 55 186 0.0 0.0 0.00 0.00 0.00 92 1014.3
20260507133355 55 186 0.0 0.0 0.00 0.00 0.00 92 1014.2
20260507132859 54 186 0.0 0.0 0.00 0.00 0.00 92 1014.2
20260507132408 54 186 0.0 0.0 0.00 0.00 0.00 91 1014.2
20260507131852 54 186 0.0 0.0 0.00 0.00 0.00 91 1014.2
20260507131354 54 186 0.0 0.0 0.00 0.00 0.00 91 1014.2
20260507130858 54 186 0.0 0.0 0.00 0.00 0.00 91 1014.2
20260507130403 54 186 0.0 0.0 0.00 0.00 0.00 91 1014.0
20260507125908 54 186 0.0 0.0 0.00 0.00 0.00 91 1014.0
20260507125354 54 186 0.0 0.0 0.00 0.00 0.00 91 1014.0
20260507124859 54 186 0.0 0.0 0.00 0.00 0.00 91 1014.0
20260507124403 54 186 0.0 0.0 0.00 0.00 0.00 91 1014.0
20260507123908 54 186 0.0 0.0 0.00 0.00 0.00 91 1014.0
20260507123413 54 186 0.0 0.0 0.00 0.00 0.00 91 1014.0
20260507122916 54 186 0.0 0.0 0.00 0.00 0.00 91 1014.1
20260507122422 54 186 0.0 0.0 0.00 0.00 0.00 90 1014.1
20260507121850 54 186 0.0 0.0 0.00 0.00 0.00 90 1014.1
20260507121355 54 186 0.0 0.0 0.00 0.00 0.00 91 1014.1
20260507120859 54 186 0.0 0.0 0.00 0.00 0.00 90 1014.0
20260507120406 54 186 0.0 0.0 0.00 0.00 0.00 90 1014.1
20260507115852 54 186 0.0 0.0 0.00 0.00 0.00 91 1014.0
20260507115358 54 186 0.0 0.0 0.00 0.00 0.00 91 1014.1
20260507114903 54 186 0.0 0.0 0.00 0.00 0.00 91 1014.1
20260507114428 54 186 0.0 0.0 0.00 0.00 0.00 90 1014.1
20260507113852 54 186 0.0 0.0 0.00 0.00 0.00 90 1014.1
20260507113357 54 186 0.0 0.0 0.00 0.00 0.00 90 1014.1
20260507112904 54 186 0.0 0.0 0.00 0.00 0.00 90 1014.1
20260507112355 54 186 0.0 0.0 0.00 0.00 0.00 90 1014.0
20260507111901 54 186 0.0 0.0 0.00 0.00 0.00 90 1014.1
20260507111425 54 186 0.0 0.0 0.00 0.00 0.00 90 1014.2
20260507110908 54 186 0.0 0.0 0.00 0.00 0.00 89 1014.2
20260507110353 54 186 0.0 0.0 0.00 0.00 0.00 89 1014.3
20260507105856 54 186 0.0 0.0 0.00 0.00 0.00 89 1014.3
20260507105401 54 186 0.0 0.0 0.00 0.00 0.00 89 1014.4
20260507104907 54 186 0.0 0.0 0.00 0.00 0.00 88 1014.4
20260507104354 55 186 0.0 0.0 0.00 0.00 0.00 88 1014.4
20260507103902 55 186 0.0 0.0 0.00 0.00 0.00 88 1014.5
20260507103406 55 186 0.0 0.0 0.00 0.00 0.00 88 1014.5
20260507102912 55 186 0.0 0.0 0.00 0.00 0.00 87 1014.4
20260507102356 55 186 0.0 0.0 0.00 0.00 0.00 87 1014.5
20260507101906 56 186 0.0 0.0 0.00 0.00 0.00 87 1014.5
20260507101353 56 186 0.0 0.0 0.00 0.00 0.00 87 1014.5
20260507100859 56 186 0.0 0.0 0.00 0.00 0.00 87 1014.5
20260507100406 56 186 0.0 0.0 0.00 0.00 0.00 87 1014.6
20260507095851 56 186 0.0 0.0 0.00 0.00 0.00 87 1014.5
20260507095356 55 186 0.0 0.0 0.00 0.00 0.00 87 1014.6
20260507094902 55 186 0.0 0.0 0.00 0.00 0.00 87 1014.6
20260507094406 56 186 0.0 0.0 0.00 0.00 0.00 87 1014.7
20260507093851 56 186 0.0 0.0 0.00 0.00 0.00 87 1014.7
20260507093357 56 186 0.0 0.0 0.00 0.00 0.00 87 1014.8
20260507092902 56 186 0.0 0.0 0.00 0.00 0.00 87 1014.8
20260507092427 56 186 0.0 0.0 0.00 0.00 0.00 87 1014.9
20260507091855 56 186 0.0 0.0 0.00 0.00 0.00 87 1014.9
20260507091401 55 186 0.0 0.0 0.00 0.00 0.00 88 1015.0
20260507090908 55 186 0.0 0.0 0.00 0.00 0.00 88 1014.9
20260507090354 55 186 0.0 0.0 0.00 0.00 0.00 88 1015.0
20260507085859 55 186 0.0 0.0 0.00 0.00 0.00 88 1015.0
20260507085407 55 186 0.0 0.0 0.00 0.00 0.00 88 1015.1
20260507084913 55 186 0.0 0.0 0.00 0.00 0.00 88 1015.2
20260507084419 55 186 0.0 0.0 0.00 0.00 0.00 87 1015.2
20260507083922 55 186 0.0 0.0 0.00 0.00 0.00 87 1015.3
20260507083405 55 186 0.0 0.0 0.00 0.00 0.00 87 1015.3
20260507082913 56 186 0.0 0.0 0.00 0.00 0.00 86 1015.3
20260507082358 56 186 0.0 0.0 0.00 0.00 0.00 86 1015.4
20260507081904 56 186 0.0 0.0 0.00 0.00 0.00 86 1015.4
20260507081354 56 186 0.0 0.0 0.00 0.00 0.00 85 1015.4
20260507080900 56 186 0.0 0.0 0.00 0.00 0.00 85 1015.4
20260507080402 56 186 0.0 0.0 0.00 0.00 0.00 85 1015.5
20260507075908 56 186 0.0 0.0 0.00 0.00 0.00 85 1015.5
20260507075354 56 186 0.0 0.0 0.00 0.00 0.00 85 1015.6
20260507073902 56 186 0.0 0.0 0.00 0.00 0.00 85 1015.5
20260507073407 56 186 0.0 0.0 0.00 0.00 0.00 85 1015.4
20260507072850 56 186 0.0 0.0 0.00 0.00 0.00 85 1015.4
20260507072354 56 186 0.0 0.0 0.00 0.00 0.00 85 1015.4
20260507071858 56 186 0.0 0.0 0.00 0.00 0.00 85 1015.4
20260507071404 56 186 0.0 0.0 0.00 0.00 0.00 85 1015.5
20260507070853 56 186 0.0 0.0 0.00 0.00 0.00 84 1015.5
20260507070419 56 186 0.0 0.0 0.00 0.00 0.00 84 1015.6
20260507065903 57 186 0.0 0.0 0.00 0.00 0.00 84 1015.7
20260507065408 57 186 0.0 0.0 0.00 0.00 0.00 83 1015.7
20260507064852 57 186 0.0 0.0 0.00 0.00 0.00 83 1015.6
20260507064418 57 186 0.0 0.0 0.00 0.00 0.00 82 1015.7
20260507063901 57 186 0.0 0.0 0.00 0.00 0.00 82 1015.8
20260507063406 57 186 0.0 0.0 0.00 0.00 0.00 82 1015.9
20260507062852 58 186 0.0 0.0 0.00 0.00 0.00 82 1015.9
20260507062358 58 186 0.0 0.0 0.00 0.00 0.00 81 1015.8
20260507061905 58 186 0.0 0.0 0.00 0.00 0.00 81 1015.8
20260507061350 58 186 0.0 0.0 0.00 0.00 0.00 81 1015.8
20260507060856 58 186 0.0 0.0 0.00 0.00 0.00 80 1015.8
20260507060406 58 186 0.0 0.0 0.00 0.00 0.00 80 1015.9
20260507055852 58 186 0.0 0.0 0.00 0.00 0.00 80 1015.8
20260507055417 58 186 0.0 0.0 0.00 0.00 0.00 80 1015.8
20260507054901 58 186 0.0 0.0 0.00 0.00 0.00 80 1015.8
20260507054359 58 186 0.0 0.0 0.00 0.00 0.00 80 1015.7
20260507053903 59 186 0.0 0.0 0.00 0.00 0.00 80 1015.7
20260507053407 59 186 0.0 0.0 0.00 0.00 0.00 79 1015.7
20260507052851 59 186 0.0 0.0 0.00 0.00 0.00 79 1015.7
20260507052355 59 186 0.0 0.0 0.00 0.00 0.00 79 1015.7
20260507051901 59 186 0.0 0.0 0.00 0.00 0.00 79 1015.7
20260507051426 59 186 0.0 0.0 0.00 0.00 0.00 78 1015.7
20260507050851 59 186 0.0 0.0 0.00 0.00 0.00 78 1015.6
20260507050355 59 186 0.0 0.0 0.00 0.00 0.00 77 1015.6
20260507045901 60 186 0.0 0.0 0.00 0.00 0.00 77 1015.7
20260507045350 60 186 0.0 0.0 0.00 0.00 0.00 77 1015.7
20260507044857 60 186 0.0 0.0 0.00 0.00 0.00 76 1015.6
20260507044402 60 186 0.0 0.0 0.00 0.00 0.00 76 1015.6
20260507043849 60 186 0.0 0.0 0.00 0.00 0.00 75 1015.6
20260507043414 61 186 0.0 0.0 0.00 0.00 0.00 76 1015.5
20260507042856 61 186 0.0 0.0 0.00 0.00 0.00 75 1015.5
20260507042401 61 186 0.0 0.0 0.00 0.00 0.00 75 1015.4
20260507041926 61 186 0.0 0.0 0.00 0.00 0.00 74 1015.5
20260507041351 61 186 0.0 0.0 0.00 0.00 0.00 74 1015.4
20260507040915 61 186 0.0 0.0 0.00 0.00 0.00 74 1015.4
20260507040359 61 186 0.0 0.0 0.00 0.00 0.00 73 1015.4
20260507035903 62 186 0.0 0.0 0.00 0.00 0.00 73 1015.3
20260507035350 62 186 0.0 0.0 0.00 0.00 0.00 72 1015.2
20260507034858 62 186 0.0 0.0 0.00 0.00 0.00 72 1015.2
20260507034402 62 186 0.0 0.0 0.00 0.00 0.00 72 1015.1
20260507033925 62 176 0.0 0.0 0.00 0.00 0.00 72 1015.1
20260507033349 62 246 0.0 0.0 0.00 0.00 0.00 72 1015.0
20260507032857 63 246 0.0 0.0 0.00 0.00 0.00 71 1014.9
20260507032403 63 246 0.0 0.0 0.00 0.00 0.00 70 1015.0
20260507031848 63 246 0.0 0.0 0.00 0.00 0.00 70 1014.9
20260507031355 64 246 0.0 0.0 0.00 0.00 0.00 70 1014.9
20260507030857 64 246 0.0 0.0 0.00 0.00 0.00 69 1014.9
20260507030404 64 246 0.0 0.0 0.00 0.00 0.00 69 1014.8
20260507025850 65 246 0.0 0.0 0.00 0.00 0.00 68 1014.8
20260507025355 65 246 0.0 0.0 0.00 0.00 0.00 68 1014.7
20260507024905 65 246 0.0 0.0 0.00 0.00 0.00 68 1014.7
20260507024352 65 246 0.0 1.0 0.00 0.00 0.00 68 1014.7
20260507023918 65 245 0.0 2.0 0.00 0.00 0.00 67 1014.7
20260507023422 66 258 1.0 3.0 0.00 0.00 0.00 67 1014.6
20260507022906 66 242 1.0 3.0 0.00 0.00 0.00 66 1014.5
20260507022353 66 265 0.0 4.0 0.00 0.00 0.00 66 1014.4
20260507021857 66 244 2.0 4.0 0.00 0.00 0.00 65 1014.4
20260507021404 67 261 1.0 3.0 0.00 0.00 0.00 65 1014.3
20260507020921 67 268 0.0 3.0 0.00 0.00 0.00 65 1014.3
20260507020405 67 252 0.0 4.0 0.00 0.00 0.00 64 1014.2
20260507015850 68 231 1.0 4.0 0.00 0.00 0.00 63 1014.2
20260507015356 68 262 1.0 3.0 0.00 0.00 0.00 63 1014.1
20260507014901 68 262 0.0 3.0 0.00 0.00 0.00 63 1014.2
20260507014406 69 250 0.0 4.0 0.00 0.00 0.00 63 1014.2
20260507013850 69 227 1.0 5.0 0.00 0.00 0.00 63 1014.1
20260507012857 70 179 2.0 5.0 0.00 0.00 0.00 62 1014.1
20260507012406 70 151 1.0 5.0 0.00 0.00 0.00 61 1014.0
20260507011851 71 226 2.0 5.0 0.00 0.00 0.00 60 1013.9
20260507011355 71 219 2.0 4.0 0.00 0.00 0.00 59 1013.8
20260507010901 72 231 1.0 4.0 0.00 0.00 0.00 58 1013.8
20260507010406 72 179 2.0 4.0 0.00 0.00 0.00 59 1013.8
20260507005920 72 249 2.0 4.0 0.00 0.00 0.00 59 1013.7
20260507005350 72 216 2.0 4.0 0.00 0.00 0.00 58 1013.7
20260507004930 72 148 1.0 5.0 0.00 0.00 0.00 59 1013.8
20260507004352 72 184 3.0 6.0 0.00 0.00 0.00 59 1013.7
20260507003858 72 279 1.0 7.0 0.00 0.00 0.00 59 1013.9
20260507003403 72 213 3.0 7.0 0.00 0.00 0.00 58 1013.8
20260507002849 72 141 0.0 5.0 0.00 0.00 0.00 59 1013.8
20260507002352 72 260 2.0 6.0 0.00 0.00 0.00 59 1013.8
20260507001857 72 167 2.0 6.0 0.00 0.00 0.00 59 1013.7
20260507001424 73 154 1.0 4.0 0.00 0.00 0.00 59 1013.8
20260507000907 73 184 1.0 3.0 0.00 0.00 0.00 59 1013.7
20260507000354 73 264 0.0 3.0 0.00 0.00 0.00 60 1013.7
20260506235858 73 286 2.0 5.0 0.00 0.00 0.00 59 1013.6
20260506235403 73 256 1.0 6.0 0.00 0.00 0.00 59 1013.7
20260506234849 72 276 1.0 6.0 0.00 0.00 0.00 59 1013.7
20260506234353 72 175 2.0 5.0 0.00 0.00 0.00 60 1013.6
20260506233855 73 266 3.0 5.0 0.00 0.00 0.00 59 1013.6
20260506233353 73 242 2.0 6.0 0.00 0.00 0.00 58 1013.6
20260506232901 73 220 1.0 6.0 0.00 0.00 0.00 59 1013.7
20260506231355 74 160 3.0 9.0 0.00 0.00 0.00 58 1013.6
20260506230902 74 255 3.0 9.0 0.00 0.00 0.00 58 1013.7
20260506225856 75 202 2.0 8.0 0.00 0.00 0.00 57 1013.7
20260506225401 75 216 3.0 8.0 0.00 0.00 0.00 57 1013.7
20260506224902 75 243 4.0 8.0 0.00 0.00 0.00 56 1013.7
20260506224359 75 279 2.0 5.0 0.00 0.00 0.00 55 1013.8
20260506223906 75 185 1.0 6.0 0.00 0.00 0.00 55 1013.8
20260506223408 75 151 3.0 8.0 0.00 0.00 0.00 55 1013.9
20260506222854 75 158 2.0 8.0 0.00 0.00 0.00 55 1013.9
20260506222359 75 262 3.0 8.0 0.00 0.00 0.00 55 1014.0
20260506221904 75 284 1.0 6.0 0.00 0.00 0.00 55 1014.0